Flag for Kazakhstan Weather past 2 weeks in Karaganda, Kazakhstan

Now
-18 °F

Sunny.


Feels Like: -33 °F
Forecast: -29 / -5 °F
Wind: 6 mph from East

Location: Karaganda

Current Time: Jan 26, 2015 at 2:57:58 PM

Latest Report: Jan 26, 2015 at 2:00 PM


Visibility: 10 mi

Pressure: 30.66 "Hg

Humidity: 69%

Dew point: -26 °F

Location of KaragandaLocation

Historic Weather in Karaganda — Graph

°F

Karaganda temperature yesterday

Maximum temperature yesterday: -17 °F (at 3:30 PM)
Minimum temperature yesterday: -33 °F (at 4:00 AM)
Average temperature yesterday: -25 °F

Past Weeks' High & Low Weather Summary

 TemperatureHumidityPressure
High27 °F (Jan 20, 1:00 PM)100% (Jan 15, 1:00 AM)30.72 "Hg (Jan 15, 1:00 AM)
Low-33 °F (Jan 24, 5:00 AM)61% (Jan 26, 11:30 AM)29.89 "Hg (Jan 21, 1:00 AM)
Average8 °F83%30.23 "Hg
* Reported Jan 11 1:00 PM — Jan 26 1:30 PM, Karaganda, Weather by CustomWeather, © 2014

Note: Actual official high and low records may vary slightly from our data, if they occured in-between our weather recording intervals... More about our weather records

Advertising

Karaganda weather history for previous 24 hours

 ConditionsComfort  
Time TempWeatherWind HumidityBarometerVisibility
1:30 PM
Jan 26
-18 °FSunny.3 mph69%30.66 "Hg10 mi
1:00 PM-20 °FSunny.6 mph68%30.66 "Hg10 mi
12:30 PM-22 °FSunny.3 mph68%30.69 "Hg10 mi
12:00 PM-24 °FSunny.3 mph68%30.69 "Hg10 mi
11:30 AM-24 °FSunny.1 mph61%30.69 "Hg10 mi
11:00 AM-26 °FSunny.1 mph67%30.69 "Hg10 mi
10:30 AM-26 °FSunny.1 mph67%30.69 "Hg10 mi
10:00 AM-29 °FSunny.1 mph67%30.69 "Hg10 mi
9:30 AM-29 °FClear.1 mph74%30.66 "Hg10 mi
9:00 AM-31 °FClear.3 mph67%30.66 "Hg10 mi
8:30 AM-31 °FClear.6 mph67%30.66 "Hg10 mi
7:30 AM-31 °FClear.8 mph67%30.66 "Hg10 mi
7:00 AM-31 °FClear.3 mph67%30.66 "Hg10 mi
6:30 AM-31 °FClear.8 mph67%30.66 "Hg10 mi
6:00 AM-31 °FClear.6 mph67%30.66 "Hg10 mi
5:30 AM-29 °FClear.6 mph67%30.66 "Hg10 mi
5:00 AM-29 °FClear.6 mph67%30.69 "Hg10 mi
4:30 AM-27 °FClear.6 mph67%30.66 "Hg10 mi
4:00 AM-29 °FClear.6 mph67%30.69 "Hg10 mi
3:30 AM-27 °FClear.3 mph67%30.69 "Hg10 mi
3:00 AM-27 °FPassing clouds.3 mph67%30.69 "HgN/A
2:30 AM-27 °FClear.8 mph67%30.69 "Hg10 mi
2:00 AM-27 °FClear.8 mph67%30.69 "Hg10 mi
1:30 AM-26 °FClear.8 mph67%30.69 "Hg10 mi
1:00 AM-26 °FClear.6 mph67%30.69 "Hg10 mi
12:30 AM-26 °FClear.6 mph67%30.69 "Hg10 mi
12:00 AM-26 °FClear.8 mph67%30.69 "Hg10 mi
11:30 PM
Jan 25
-26 °FClear.8 mph75%30.72 "Hg10 mi
11:00 PM-24 °FClear.6 mph68%30.69 "Hg10 mi
10:30 PM-26 °FClear.6 mph75%30.72 "Hg10 mi
10:00 PM-24 °FClear.6 mph68%30.72 "Hg10 mi
9:30 PM-26 °FClear.8 mph75%30.72 "Hg10 mi
9:00 PM-24 °FClear.8 mph68%30.72 "Hg10 mi
8:30 PM-24 °FClear.6 mph68%30.72 "Hg10 mi
8:00 PM-26 °FClear.8 mph75%30.72 "Hg10 mi
7:30 PM-24 °FClear.10 mph75%30.72 "Hg10 mi
7:00 PM-22 °FClear.13 mph68%30.72 "Hg10 mi
6:30 PM-22 °FSunny.10 mph75%30.72 "Hg10 mi
6:00 PM-20 °FSunny.13 mph75%30.72 "Hg10 mi
5:30 PM-18 °FSunny.15 mph69%30.72 "Hg10 mi
5:00 PM-18 °FSunny.13 mph75%30.72 "Hg10 mi
4:30 PM-17 °FSunny.13 mph69%30.72 "Hg10 mi
4:00 PM-17 °FSunny.13 mph69%30.72 "Hg10 mi
3:30 PM-17 °FSunny.13 mph69%30.72 "Hg10 mi
3:00 PM-18 °FSunny.15 mph75%30.69 "Hg10 mi
2:30 PM-18 °FSunny.15 mph75%30.72 "Hg10 mi
2:00 PM-18 °FScattered clouds.13 mph69%30.72 "HgN/A
Weather by CustomWeather, © 2014

See weather overviewHow to use our weather pages